This demonstration page uses our WeatherBlox Daily Observations layout. Learn more.

Left ArrowRight Arrow

40.92945, -100.16068

Hourly Observations for July 28, 2021

Temp ( °F °C ) Dew Point ( °F °C ) Humidity (%) Winds ( mph kmh ) Pressure ( in mb ) Visibility ( mi km ) Precip ( " mm )
12:15 am 00:15 Clear 76 24.3 72 22 87 87 SSE 6 9 29.96 1014 10 16 N/A
12:35 am 00:35 Clear 75 23.9 71 21.5 86 86 SSE 6 9 29.96 1015 10 16 N/A
12:55 am 00:55 Clear 74 23.5 70 21.3 88 88 SSE 5 7 29.96 1015 10 16 N/A
1:15 am 01:15 Clear 73 23 70 21.1 89 89 S 3 6 29.97 1015 10 16 N/A
1:35 am 01:35 Clear 73 23 70 20.9 88 88 S 6 9 29.97 1015 10 16 N/A
1:55 am 01:55 Clear 73 23 69 20.8 87 87 S 5 7 29.97 1015 10 16 N/A
2:15 am 02:15 Clear 73 22.8 69 20.6 87 87 S 5 7 29.97 1015 10 16 N/A
2:35 am 02:35 Clear 73 22.5 69 20.5 89 89 S 3 6 29.96 1015 10 16 N/A
2:55 am 02:55 Clear 73 22.5 69 20.3 87 87 N N/A 29.96 1015 10 16 N/A
3:15 am 03:15 Clear 72 22.2 68 20.2 89 89 N N/A 29.97 1015 10 16 N/A
3:35 am 03:35 Clear 72 22.2 68 20.1 88 88 SE 3 6 29.97 1015 10 16 N/A
3:55 am 03:55 Partly Cloudy 72 22.3 68 20.2 88 88 N N/A 29.97 1015 10 16 N/A
4:15 am 04:15 Clear 72 22.2 68 20.1 88 88 S 3 6 29.97 1015 10 16 N/A
4:35 am 04:35 Partly Cloudy 72 22 68 20 88 88 N N/A 29.97 1015 10 16 N/A
4:55 am 04:55 Clear 71 21.7 67 19.7 88 88 S 3 6 29.98 1015 10 16 N/A
5:15 am 05:15 Clear 71 21.8 68 19.9 89 89 N N/A 29.98 1015 10 16 N/A
5:35 am 05:35 Clear 71 21.7 67 19.7 88 88 N N/A 29.98 1015 10 16 N/A
5:55 am 05:55 Clear 71 21.9 67 19.7 87 87 N N/A 29.98 1015 10 16 N/A
6:15 am 06:15 Clear 72 22.1 67 19.7 86 86 SE 3 6 29.97 1015 10 16 N/A
6:35 am 06:35 Sunny 70 21.2 67 19.4 90 90 N N/A 29.98 1015 10 16 N/A
6:55 am 06:55 Sunny 68 20.2 66 19 93 93 N N/A 29.99 1016 10 16 N/A
7:15 am 07:15 Sunny 73 22.5 68 20 86 86 ESE 3 6 29.97 1015 10 16 N/A
7:35 am 07:35 Sunny 74 23.1 68 20.2 84 84 SE 3 6 29.97 1015 10 16 N/A
7:55 am 07:55 Sunny 74 23.6 69 20.5 83 83 SE 3 6 29.95 1014 10 16 N/A
8:15 am 08:15 Sunny 76 24.7 69 20.8 79 79 S 3 6 29.95 1014 10 16 N/A
8:35 am 08:35 Sunny 78 25.7 70 21 75 75 S 5 7 29.93 1014 10 16 N/A
8:55 am 08:55 Sunny 80 26.9 71 21.4 72 72 S 7 11 29.92 1013 10 16 N/A
9:15 am 09:15 Sunny 82 27.9 70 21.3 67 67 S 10 17 29.91 1013 10 16 N/A
9:35 am 09:35 Sunny 84 28.8 70 21.2 64 64 S 13 20 29.91 1013 10 16 N/A
9:55 am 09:55 Sunny 85 29.5 70 21.3 61 61 S 13 20 29.89 1012 10 16 N/A
10:15 am 10:15 Sunny 86 30.1 71 21.4 60 60 S 9 15 29.89 1012 10 16 N/A
10:35 am 10:35 Sunny 88 30.9 70 21 56 56 SSW 15 24 29.88 1012 10 16 N/A
10:55 am 10:55 Sunny 88 31.3 71 21.4 56 56 S 14 22 29.87 1011 10 16 N/A
11:15 am 11:15 Sunny 89 31.5 71 21.5 55 55 SSW 9 15 29.88 1012 10 16 N/A
11:35 am 11:35 Sunny 90 32.1 71 21.5 53 53 SSW 10 17 29.87 1012 10 16 N/A
11:55 am 11:55 Sunny 91 32.7 71 21.6 52 52 S 12 19 29.87 1011 10 16 N/A
12:15 pm 12:15 Sunny 92 33.5 71 21.8 50 50 S 15 24 29.86 1011 10 16 N/A
12:35 pm 12:35 Sunny 93 33.8 71 21.4 48 48 SSE 13 20 29.86 1011 10 16 N/A
12:55 pm 12:55 Sunny 93 34.1 71 21.8 49 49 S 12 19 29.86 1011 10 16 N/A
1:15 pm 13:15 Sunny 94 34.5 71 21.7 47 47 S 12 19 29.85 1011 10 16 N/A
1:35 pm 13:35 Sunny 95 34.8 71 21.7 46 46 SSE 15 24 29.84 1011 10 16 N/A
1:55 pm 13:55 Sunny 95 34.8 72 22.1 48 48 SSE 13 20 29.84 1011 10 16 N/A
2:15 pm 14:15 Sunny 95 35 72 22.4 48 48 SSE 16 26 29.84 1010 10 16 N/A
2:35 pm 14:35 Sunny 95 35.2 71 21.7 45 45 S 13 20 29.83 1010 10 16 N/A
2:55 pm 14:55 Sunny 96 35.6 72 22.2 46 46 SSE 15 24 29.82 1010 10 16 N/A
3:15 pm 15:15 Sunny 97 35.9 72 22 44 44 SSE 16 26 29.82 1010 10 16 N/A
3:35 pm 15:35 Sunny 97 36.2 71 21.4 42 42 SSE 17 28 29.81 1009 10 16 N/A
3:55 pm 15:55 Sunny 97 36.1 70 21.1 42 42 SSE 14 22 29.81 1010 10 16 N/A
4:15 pm 16:15 Sunny 97 36 70 20.9 41 41 SSE 16 26 29.81 1010 10 16 N/A
4:35 pm 16:35 Sunny 97 36.3 71 21.7 43 43 SSE 16 26 29.80 1009 10 16 N/A
4:55 pm 16:55 Sunny 97 36 70 21.3 42 42 SSE 16 26 29.80 1009 10 16 N/A
5:15 pm 17:15 Sunny 97 36 70 21.2 42 42 SSE 14 22 29.80 1009 10 16 N/A
5:35 pm 17:35 Sunny 96 35.7 71 21.4 43 43 SE 12 19 29.79 1009 10 16 N/A
5:55 pm 17:55 Sunny 96 35.6 70 21.1 43 43 SSE 17 28 29.80 1009 10 16 N/A
6:15 pm 18:15 Sunny 96 35.4 70 21.2 44 44 SSE 15 24 29.79 1009 10 16 N/A
6:35 pm 18:35 Sunny 95 35.1 70 21.3 45 45 SSE 12 19 29.79 1009 10 16 N/A
6:55 pm 18:55 Sunny 95 35 71 21.4 45 45 SSE 14 22 29.78 1008 10 16 N/A
7:15 pm 19:15 Hazy 94 34.4 70 21.3 46 46 SSE 14 22 29.78 1009 3 5 N/A
7:35 pm 19:35 Partly Cloudy 93 33.7 72 22.1 51 51 SSE 12 19 29.79 1009 7 11 N/A
7:55 pm 19:55 Hazy 91 33 72 22.1 53 53 SSE 10 17 29.80 1009 5 8 N/A
8:15 pm 20:15 Partly Cloudy 91 32.7 72 22 53 53 SE 9 15 29.80 1009 10 16 N/A
8:35 pm 20:35 Sunny 90 32 72 22.3 56 56 SE 9 15 29.80 1009 10 16 N/A
8:55 pm 20:55 Sunny 88 31.1 74 23.2 63 63 SE 8 13 29.81 1009 10 16 N/A
9:15 pm 21:15 Clear 86 30.2 74 23.1 66 66 SE 7 11 29.82 1010 10 16 N/A
9:35 pm 21:35 Clear 85 29.6 73 22.6 66 66 SSE 7 11 29.83 1010 10 16 N/A
9:55 pm 21:55 Clear 83 28.6 73 22.5 70 70 SSE 8 13 29.85 1011 10 16 N/A
10:15 pm 22:15 Clear 82 27.7 72 22.3 72 72 SE 7 11 29.87 1011 7 11 N/A
10:35 pm 22:35 Clear 82 27.9 71 21.5 68 68 SSE 9 15 29.88 1012 10 16 N/A
10:55 pm 22:55 Clear 81 27.4 70 21.3 69 69 SSE 8 13 29.88 1012 10 16 N/A
11:15 pm 23:15 Clear 81 27 69 20.8 69 69 S 7 11 29.88 1012 10 16 N/A
11:35 pm 23:35 Clear 82 27.6 68 20 63 63 S 9 15 29.88 1012 10 16 N/A
11:55 pm 23:55 Clear 83 28.2 67 19.5 59 59 S 12 19 29.87 1012 10 16 N/A

Powered by AerisWeather